TimeMST,TemperatureF,Dew PointF,Humidity,Sea Level PressureIn,VisibilityMPH,Wind Direction,Wind SpeedMPH,Gust SpeedMPH,PrecipitationIn,Events,Conditions,WindDirDegrees,DateUTC
12:53 AM,46.4,21.2,37,29.91,10.0,Calm,Calm,-,N/A,,Clear,0,2012-11-08 07:53:00
1:53 AM,42.1,21.0,43,29.80,10.0,Calm,Calm,-,N/A,,Clear,0,2012-11-08 08:53:00
2:53 AM,36.0,19.9,52,29.82,10.0,ENE,6.9,-,N/A,,Clear,60,2012-11-08 09:53:00
3:53 AM,37.9,21.0,51,29.81,10.0,NE,9.2,-,N/A,,Clear,50,2012-11-08 10:53:00
4:53 AM,37.0,28.0,70,29.82,10.0,NE,12.7,-,N/A,,Clear,50,2012-11-08 11:53:00
5:53 AM,36.0,28.0,73,29.84,10.0,ENE,10.4,-,N/A,,Clear,70,2012-11-08 12:53:00
6:53 AM,30.9,25.0,79,29.86,10.0,East,3.5,-,N/A,,Clear,90,2012-11-08 13:53:00
7:53 AM,34.0,24.1,67,29.88,10.0,ESE,5.8,-,N/A,,Clear,110,2012-11-08 14:53:00
8:53 AM,37.9,27.0,65,29.87,10.0,Calm,Calm,-,N/A,,Clear,0,2012-11-08 15:53:00
9:53 AM,39.0,27.0,62,29.85,10.0,SSW,4.6,-,N/A,,Clear,200,2012-11-08 16:53:00
10:53 AM,44.1,27.0,51,29.81,10.0,Calm,Calm,-,N/A,,Clear,0,2012-11-08 17:53:00
11:53 AM,46.0,28.0,50,29.75,10.0,Variable,3.5,-,N/A,,Clear,0,2012-11-08 18:53:00
12:53 PM,50.0,27.0,41,29.67,10.0,West,3.5,-,N/A,,Clear,260,2012-11-08 19:53:00
1:53 PM,51.1,26.1,38,29.65,10.0,Calm,Calm,-,N/A,,Clear,0,2012-11-08 20:53:00
2:53 PM,54.0,25.0,33,29.63,10.0,Calm,Calm,-,N/A,,Clear,0,2012-11-08 21:53:00
3:53 PM,53.1,25.0,34,29.63,10.0,WNW,5.8,-,N/A,,Clear,300,2012-11-08 22:53:00
4:53 PM,48.0,25.0,41,29.65,10.0,Calm,Calm,-,N/A,,Clear,0,2012-11-08 23:53:00
5:53 PM,45.0,24.1,44,29.66,10.0,SSW,3.5,-,N/A,,Clear,200,2012-11-09 00:53:00
6:53 PM,39.0,21.9,50,29.70,10.0,NNW,8.1,-,N/A,,Clear,330,2012-11-09 01:53:00
7:53 PM,37.0,21.9,54,29.68,10.0,NNW,6.9,-,N/A,,Clear,340,2012-11-09 02:53:00
8:53 PM,36.0,23.0,59,29.65,10.0,NW,9.2,-,N/A,,Clear,310,2012-11-09 03:53:00
9:53 PM,34.0,21.9,61,29.65,10.0,NW,9.2,-,N/A,,Clear,310,2012-11-09 04:53:00
10:53 PM,30.9,21.0,67,29.62,10.0,NW,6.9,-,N/A,,Clear,310,2012-11-09 05:53:00
11:53 PM,32.0,23.0,69,29.61,10.0,NW,9.2,-,N/A,,Clear,320,2012-11-09 06:53:00